This is the latest recevied weather packets stored in our database for station/object N3SBK. If no packets are shown the sender has not sent any weather packets the latest 10 day(s).
| Time | Temp. | Humidity | Pressure | Rain* | Wind** | Luminosity | Snow |
|---|---|---|---|---|---|---|---|
| 1787677377 | 21.11° C | 74% | 1011.7 hPa | 0 mm | - | 175 W/m² | - |
| 1787677076 | 21.11° C | 75% | 1011.5 hPa | 0 mm | - | 157 W/m² | - |
| 1787676773 | 21.11° C | 74% | 1011.5 hPa | 0 mm | - | 166 W/m² | - |
| 1787676467 | 21.11° C | 72% | 1011.8 hPa | 0 mm | - | 173 W/m² | - |
| 1787676165 | 21.67° C | 73% | 1011.6 hPa | 0 mm | - | 58 W/m² | - |
| 1787675859 | 21.67° C | 73% | 1011.5 hPa | 0 mm | - | 92 W/m² | - |
| 1787675556 | 21.67° C | 73% | 1011.4 hPa | 0 mm | - | 196 W/m² | - |
| 1787675253 | 21.67° C | 71% | 1011.7 hPa | 0 mm | - | 83 W/m² | - |
| 1787674948 | 21.67° C | 72% | 1011.7 hPa | 0 mm | - | 157 W/m² | - |
| 1787674644 | 21.67° C | 69% | 1011.6 hPa | 0 mm | - | 181 W/m² | - |
| 1787674339 | 22.22° C | 71% | 1011.6 hPa | 0 mm | - | 147 W/m² | - |
| 1787674035 | 22.22° C | 68% | 1011.5 hPa | 0 mm | - | 125 W/m² | - |
| 1787673729 | 22.22° C | 68% | 1011.7 hPa | 0 mm | - | 152 W/m² | - |
| 1787673429 | 22.22° C | 71% | 1011.7 hPa | 0 mm | - | 599 W/m² | - |
| 1787673118 | 21.67° C | 74% | 1011.9 hPa | 0 mm | - | 582 W/m² | - |
| 1787672817 | 22.22° C | 69% | 1011.6 hPa | 0 mm | - | 153 W/m² | - |
| 1787672514 | 21.67° C | 72% | 1011.7 hPa | 0 mm | - | 557 W/m² | - |
| 1787672213 | 21.11° C | 73% | 1011.9 hPa | 0 mm | - | 455 W/m² | - |
| 1787671912 | 20.56° C | 74% | 1011.8 hPa | 0 mm | - | 456 W/m² | - |
| 1787671609 | 20.56° C | 74% | 1012 hPa | 0 mm | - | 276 W/m² | - |
| 1787671308 | 20° C | 77% | 1012 hPa | 0 mm | - | 311 W/m² | - |
| 1787671003 | 19.44° C | 77% | 1011.9 hPa | 0 mm | - | 515 W/m² | - |
| 1787670699 | 19.44° C | 78% | 1011.8 hPa | 0 mm | - | 224 W/m² | - |
| 1787670398 | 19.44° C | 80% | 1011.9 hPa | 0 mm | - | 178 W/m² | - |
| 1787670099 | 18.89° C | 79% | 1011.9 hPa | 0 mm | - | 357 W/m² | - |
* Rain latest hour (hover to see other rain measurements)
** Current wind speed in m/s (hover to see current wind gust speed)